EJA647 KBVY-KLKP

Flight info

Callsign EJA647
Flight time N/A
Altitude 28000
Route HYLND MANCH BTV
Aircraft CL60/M-SBDE1E2E3FGHIJ1J4J5J7M3RWXYZ/LB1V1D1

Departure

Time 2026-05-08 02:01
Airport Beverly Regional Airport (KBVY)

Arrival

Time N/A
Airport Lake Placid Airport (KLKP)
Time Latitude Longitude Altitude Speed Heading
2026-05-08 01:37 42.58577 -70.92070 92 ft 0 kts 102°
2026-05-08 01:57 42.58577 -70.92069 92 ft 0 kts 102°
2026-05-08 01:58 42.58573 -70.92049 92 ft 6 kts 102°
2026-05-08 01:58 42.58567 -70.91992 94 ft 5 kts 112°
2026-05-08 01:58 42.58536 -70.91928 94 ft 11 kts 107°
2026-05-08 01:58 42.58524 -70.91840 93 ft 10 kts 100°
2026-05-08 01:59 42.58505 -70.91695 93 ft 18 kts 101°
2026-05-08 01:59 42.58480 -70.91504 93 ft 22 kts 100°
2026-05-08 01:59 42.58462 -70.91326 90 ft 11 kts 74°
2026-05-08 01:59 42.58435 -70.91231 88 ft 15 kts 142°
2026-05-08 02:00 42.58351 -70.91135 86 ft 19 kts 140°
2026-05-08 02:00 42.58269 -70.91050 84 ft 14 kts 145°
2026-05-08 02:00 42.58198 -70.90967 82 ft 11 kts 143°
2026-05-08 02:00 42.58152 -70.90992 83 ft 4 kts 228°
2026-05-08 02:01 42.58150 -70.91029 84 ft 5 kts 319°
2026-05-08 02:01 42.58231 -70.91120 87 ft 55 kts 320°
2026-05-08 02:01 42.58829 -70.91782 138 ft 155 kts 320°
2026-05-08 02:01 42.59724 -70.92816 1005 ft 182 kts 317°
2026-05-08 02:02 42.60726 -70.94020 1815 ft 198 kts 318°
2026-05-08 02:02 42.61710 -70.95255 2497 ft 192 kts 311°
2026-05-08 02:02 42.62525 -70.96743 3144 ft 206 kts 305°
2026-05-08 02:02 42.63387 -70.98439 3942 ft 235 kts 305°
2026-05-08 02:03 42.64344 -71.00317 4918 ft 250 kts 304°
2026-05-08 02:03 42.65352 -71.02302 6260 ft 267 kts 304°
2026-05-08 02:03 42.66384 -71.04334 8024 ft 266 kts 303°
2026-05-08 02:03 42.67396 -71.06331 9769 ft 265 kts 302°
2026-05-08 02:04 42.68440 -71.08398 11032 ft 280 kts 301°
2026-05-08 02:04 42.69608 -71.10720 11765 ft 311 kts 301°
2026-05-08 02:04 42.70871 -71.13222 12885 ft 324 kts 300°
2026-05-08 02:04 42.72163 -71.15785 14048 ft 334 kts 300°
2026-05-08 02:05 42.73473 -71.18381 15244 ft 340 kts 298°
2026-05-08 02:05 42.74823 -71.21062 16390 ft 346 kts 297°
2026-05-08 02:05 42.76174 -71.23748 17451 ft 352 kts 296°
2026-05-08 02:05 42.77575 -71.26492 18467 ft 360 kts 298°
2026-05-08 02:06 42.79410 -71.28972 19414 ft 380 kts 312°
2026-05-08 02:06 42.81518 -71.31176 20287 ft 389 kts 313°
2026-05-08 02:06 42.83672 -71.33419 21179 ft 394 kts 313°
2026-05-08 02:06 42.85856 -71.35700 22007 ft 399 kts 312°
2026-05-08 02:07 42.88014 -71.38039 22778 ft 401 kts 310°
2026-05-08 02:07 42.90145 -71.40482 23529 ft 405 kts 309°
2026-05-08 02:07 42.92318 -71.42982 24245 ft 411 kts 309°
2026-05-08 02:07 42.94528 -71.45525 25026 ft 414 kts 309°
2026-05-08 02:08 42.96725 -71.48051 25810 ft 415 kts 309°
2026-05-08 02:08 42.98941 -71.50606 26479 ft 419 kts 309°
2026-05-08 02:08 43.01170 -71.53176 27154 ft 421 kts 309°
2026-05-08 02:08 43.03408 -71.55764 27648 ft 427 kts 309°
2026-05-08 02:09 43.05711 -71.58433 27826 ft 435 kts 309°
2026-05-08 02:09 43.07996 -71.61076 27846 ft 435 kts 309°
2026-05-08 02:09 43.10297 -71.63733 27847 ft 431 kts 309°
2026-05-08 02:09 43.12578 -71.66371 27842 ft 428 kts 308°
2026-05-08 02:10 43.14826 -71.68975 27844 ft 426 kts 308°
2026-05-08 02:10 43.17079 -71.71590 27850 ft 426 kts 308°
2026-05-08 02:10 43.19353 -71.74236 27847 ft 426 kts 308°
2026-05-08 02:10 43.21601 -71.76852 27851 ft 427 kts 308°
2026-05-08 02:11 43.23862 -71.79488 27858 ft 427 kts 308°
2026-05-08 02:11 43.26127 -71.82129 27863 ft 427 kts 308°
2026-05-08 02:11 43.28399 -71.84782 27866 ft 426 kts 308°
2026-05-08 02:11 43.30644 -71.87407 27862 ft 427 kts 308°
2026-05-08 02:12 43.32898 -71.90044 27859 ft 427 kts 308°
2026-05-08 02:12 43.35153 -71.92687 27869 ft 427 kts 308°
2026-05-08 02:12 43.37421 -71.95347 27855 ft 427 kts 308°
2026-05-08 02:12 43.39712 -71.98035 27863 ft 427 kts 308°
2026-05-08 02:13 43.41963 -72.00682 27853 ft 428 kts 308°
2026-05-08 02:13 43.44226 -72.03345 27850 ft 428 kts 308°
2026-05-08 02:13 43.46480 -72.05998 27855 ft 428 kts 308°
2026-05-08 02:13 43.48750 -72.08675 27853 ft 428 kts 308°
2026-05-08 02:14 43.51014 -72.11346 27862 ft 428 kts 308°
2026-05-08 02:14 43.53262 -72.14002 27853 ft 428 kts 308°
2026-05-08 02:14 43.55509 -72.16659 27870 ft 428 kts 308°
2026-05-08 02:14 43.57778 -72.19345 27862 ft 429 kts 308°
2026-05-08 02:15 43.60063 -72.22052 27860 ft 428 kts 308°
2026-05-08 02:15 43.62344 -72.24757 27872 ft 427 kts 308°
2026-05-08 02:15 43.64578 -72.27411 27856 ft 428 kts 308°
2026-05-08 02:15 43.66880 -72.30148 27863 ft 428 kts 309°
2026-05-08 02:16 43.69169 -72.32871 27871 ft 428 kts 309°
2026-05-08 02:16 43.71402 -72.35531 27858 ft 428 kts 308°
2026-05-08 02:16 43.73678 -72.38245 27872 ft 428 kts 309°
2026-05-08 02:16 43.75927 -72.40931 27855 ft 428 kts 309°
2026-05-08 02:17 43.78175 -72.43617 27860 ft 428 kts 309°
2026-05-08 02:17 43.80446 -72.46333 27847 ft 428 kts 309°
2026-05-08 02:17 43.82687 -72.49017 27854 ft 428 kts 309°
2026-05-08 02:17 43.84949 -72.51729 27843 ft 428 kts 309°
2026-05-08 02:18 43.87204 -72.54434 27848 ft 429 kts 309°
2026-05-08 02:18 43.89467 -72.57152 27840 ft 428 kts 309°
2026-05-08 02:18 43.91700 -72.59837 27844 ft 428 kts 309°
2026-05-08 02:18 43.93945 -72.62539 27842 ft 428 kts 309°
2026-05-08 02:19 43.96212 -72.65271 27851 ft 429 kts 309°
2026-05-08 02:19 43.98462 -72.67986 27854 ft 429 kts 309°
2026-05-08 02:19 44.00698 -72.70685 27861 ft 428 kts 309°
2026-05-08 02:19 44.02951 -72.73408 27852 ft 428 kts 309°
2026-05-08 02:20 44.05199 -72.76127 27855 ft 427 kts 309°
2026-05-08 02:20 44.07449 -72.78853 27854 ft 428 kts 309°
2026-05-08 02:20 44.09702 -72.81589 27597 ft 434 kts 309°
2026-05-08 02:20 44.11955 -72.84325 27110 ft 431 kts 310°
2026-05-08 02:21 44.14191 -72.87034 26539 ft 424 kts 310°
2026-05-08 02:21 44.16412 -72.89729 25993 ft 417 kts 310°
2026-05-08 02:21 44.18574 -72.92359 25424 ft 413 kts 310°
2026-05-08 02:21 44.20730 -72.94984 24865 ft 407 kts 311°
2026-05-08 02:22 44.22862 -72.97583 24327 ft 404 kts 311°
2026-05-08 02:22 44.24978 -73.00167 23778 ft 399 kts 311°
2026-05-08 02:22 44.27037 -73.02683 23279 ft 397 kts 311°
2026-05-08 02:22 44.29099 -73.05206 22758 ft 393 kts 311°
2026-05-08 02:23 44.31150 -73.07718 22249 ft 389 kts 312°
2026-05-08 02:23 44.33195 -73.10226 21738 ft 386 kts 312°
2026-05-08 02:23 44.35193 -73.12678 21243 ft 382 kts 313°
2026-05-08 02:23 44.37136 -73.15138 20738 ft 374 kts 308°
2026-05-08 02:24 44.38624 -73.18051 20190 ft 362 kts 292°
2026-05-08 02:24 44.39389 -73.21326 19691 ft 352 kts 277°
2026-05-08 02:24 44.39509 -73.24725 19160 ft 349 kts 266°
2026-05-08 02:24 44.39390 -73.28082 18726 ft 347 kts 266°
2026-05-08 02:25 44.39274 -73.31448 18240 ft 346 kts 266°
2026-05-08 02:25 44.39158 -73.34811 17801 ft 344 kts 266°
2026-05-08 02:25 44.39043 -73.38158 17344 ft 339 kts 267°
2026-05-08 02:25 44.38929 -73.41418 17073 ft 334 kts 267°
2026-05-08 02:26 44.38814 -73.44672 16565 ft 332 kts 267°
2026-05-08 02:26 44.38702 -73.47831 16144 ft 326 kts 267°
2026-05-08 02:26 44.38589 -73.51007 15708 ft 321 kts 267°
2026-05-08 02:26 44.38477 -73.54113 15271 ft 316 kts 268°
2026-05-08 02:27 44.38366 -73.57175 14851 ft 312 kts 268°
2026-05-08 02:27 44.38257 -73.60171 14433 ft 306 kts 268°
2026-05-08 02:27 44.38148 -73.63152 14039 ft 302 kts 268°
2026-05-08 02:27 44.38040 -73.66066 13621 ft 297 kts 268°
2026-05-08 02:28 44.37932 -73.68961 13228 ft 293 kts 268°
2026-05-08 02:28 44.37826 -73.71798 12840 ft 289 kts 268°
2026-05-08 02:28 44.37721 -73.74578 12459 ft 284 kts 268°
2026-05-08 02:28 44.37618 -73.77293 12085 ft 280 kts 268°
2026-05-08 02:29 44.37515 -73.79986 11721 ft 275 kts 268°
2026-05-08 02:29 44.37413 -73.82627 11358 ft 271 kts 268°
2026-05-08 02:29 44.37310 -73.85290 10987 ft 267 kts 268°
2026-05-08 02:29 44.37209 -73.87909 10638 ft 262 kts 268°
2026-05-08 02:30 44.37109 -73.90463 10289 ft 257 kts 269°
2026-05-08 02:30 44.37105 -73.90556 10277 ft 257 kts 269°